Le nostre stazioni meteo in Italia

Pubblicità
Il mio iltempo24.it
Besancon, Francia (7288): Temperatura & dewpoint: 30.06.2020 00:00:00 - 06.07.2020 00:00:00 (CEST)Besancon, Francia (7288): Temperatura 5cm: 30.06.2020 00:00:00 - 06.07.2020 00:00:00 (CEST)Besancon, Francia (7288): Temperatura -20cm & Temperatura -100cm: 30.06.2020 00:00:00 - 06.07.2020 00:00:00 (CEST)Besancon, Francia (7288): velocità del vento & gusts: 30.06.2020 00:00:00 - 06.07.2020 00:00:00 (CEST)Besancon, Francia (7288): direzione del vento: 30.06.2020 00:00:00 - 06.07.2020 00:00:00 (CEST)Besancon, Francia (7288): reduced air pressure: 30.06.2020 00:00:00 - 06.07.2020 00:00:00 (CEST)Besancon, Francia (7288): ore di luce: 30.06.2020 00:00:00 - 06.07.2020 00:00:00 (CEST)Besancon, Francia (7288): precipitazioni: 30.06.2020 00:00:00 - 06.07.2020 00:00:00 (CEST)
Data & Tempo tt [°C] td [°C] tt 5cm [°C] tt -20cm [°C] tt -100cm [°C] ff [km/h] ff [kn] fx [km/h] fx [kn] dd ppp [hPa] sd [min] rr [mm]
06.07.2020 00:00:00 21,6 16,1 17,0 21,5 17,7 7 4 16 9 SSO 1017,5 0 0,0
05.07.2020 23:00:00 22,1 15,9 17,2 21,6 17,7 5 3 18 10 SSO 1017,5 0 0,0
05.07.2020 22:00:00 23,5 16,3 18,4 21,5 17,7 6 3 18 10 SO 1016,9 5 0,0
05.07.2020 21:00:00 25,3 16,2 21,0 21,5 17,7 9 5 26 14 SO 1016,2 38 0,0
05.07.2020 20:00:00 26,8 16,7 24,7 21,4 17,7 11 6 28 15 SO 1016,0 57 0,0
05.07.2020 19:00:00 27,2 16,5 27,7 21,3 17,7 12 7 29 16 SSO 1016,2 58 0,0
05.07.2020 18:00:00 27,5 16,8 31,3 21,1 17,7 12 7 28 15 SSO 1016,8 56 0,0
05.07.2020 17:00:00 27,4 17,6 28,3 21,0 17,7 13 7 28 15 SSO 1017,0 45 0,0
05.07.2020 16:00:00 26,3 16,8 33,1 20,8 17,7 14 8 31 17 SO 1017,7 44 0,0
05.07.2020 15:00:00 26,4 17,5 30,4 20,7 17,7 11 6 32 17 OSO 1018,0 48 0,0
05.07.2020 14:00:00 24,9 16,9 29,8 20,6 17,7 11 6 33 18 SO 1018,8 31 0,0
05.07.2020 13:00:00 23,9 16,7 33,5 20,5 17,7 13 7 27 15 SO 1019,3 60 0,0
05.07.2020 12:00:00 22,8 16,3 25,0 20,5 17,7 10 6 26 14 SSO 1019,8 39 0,0
05.07.2020 11:00:00 20,8 15,8 23,5 20,5 17,7 12 7 29 16 SSO 1020,2 0 0,0
05.07.2020 10:00:00 20,3 15,3 20,1 20,5 17,7 11 6 31 17 SSO 1020,4 2 0,0
05.07.2020 09:00:00 19,4 15,1 19,2 20,6 17,7 9 5 21 11 SSO 1020,5 0 0,0
05.07.2020 08:00:00 19,0 14,5 17,2 20,6 17,7 11 6 28 15 SSO 1020,4 3 0,0
05.07.2020 07:00:00 18,7 13,3 16,6 20,7 17,7 6 3 12 7 S 1020,4 0 0,0
05.07.2020 06:00:00 18,6 12,8 16,4 20,7 17,7 4 2 14 7 SSO 1020,5 0 0,0
05.07.2020 05:00:00 18,7 12,4 16,0 20,8 17,7 5 3 11 6 SSO 1020,4 0 0,0
05.07.2020 04:00:00 18,4 12,2 15,6 20,8 17,7 4 2 13 7 SSO 1020,6 0 0,0
05.07.2020 03:00:00 19,1 12,1 16,1 20,9 17,7 4 2 11 6 S 1020,8 0 0,0
05.07.2020 02:00:00 18,7 12,0 14,6 20,9 17,7 4 2 8 4 SSO 1021,2 0 0,0
05.07.2020 01:00:00 18,0 11,8 13,6 21,0 17,7 0 0 5 3 N 1021,3 0 0,0
05.07.2020 00:00:00 18,8 11,6 13,8 21,0 17,7 4 2 11 6 SSO 1020,9 0 0,0
04.07.2020 23:00:00 20,0 12,0 14,6 21,0 17,7 4 2 12 7 SSO 1020,7 0 0,0
04.07.2020 22:00:00 21,3 11,3 16,0 20,9 17,7 5 3 16 9 SSO 1020,1 7 0,0
04.07.2020 21:00:00 23,2 11,9 19,9 20,9 17,7 5 3 20 11 SSO 1019,4 39 0,0
04.07.2020 20:00:00 23,9 11,6 21,5 20,8 17,7 7 4 20 11 SSO 1019,5 40 0,0
04.07.2020 19:00:00 24,0 11,3 23,3 20,7 17,7 9 5 25 13 SO 1019,5 29 0,0
04.07.2020 18:00:00 25,2 11,4 29,1 20,5 17,7 10 6 24 13 SO 1019,5 60 0,0
04.07.2020 17:00:00 24,9 11,1 31,1 20,4 17,7 10 6 26 14 SO 1019,6 60 0,0
04.07.2020 16:00:00 24,2 10,5 34,4 20,2 17,7 10 5 29 15 OSO 1020,3 60 0,0
04.07.2020 15:00:00 23,9 10,6 31,8 20,0 17,7 12 6 29 16 SO 1020,1 60 0,0
04.07.2020 14:00:00 23,4 12,7 31,5 19,9 17,7 8 4 25 13 SSO 1020,6 60 0,0
04.07.2020 13:00:00 22,6 10,7 30,4 19,9 17,7 8 5 22 12 SSO 1021,2 54 0,0
04.07.2020 12:00:00 21,4 10,5 29,1 19,8 17,7 7 4 17 9 SO 1021,9 60 0,0
04.07.2020 11:00:00 20,2 11,4 24,3 19,9 17,7 6 3 16 9 O 1022,0 60 0,0
04.07.2020 10:00:00 19,0 11,1 20,9 19,9 17,7 8 5 17 9 O 1022,3 60 0,0
04.07.2020 09:00:00 17,2 11,5 12,0 20,0 17,7 3 2 8 4 SO 1022,3 55 0,0
04.07.2020 08:00:00 13,3 11,0 9,3 20,1 17,7 0 0 5 3 N 1022,6 60 0,0
04.07.2020 07:00:00 10,9 10,4 7,8 20,3 17,7 2 1 3 2 N 1022,6 12 0,2
04.07.2020 06:00:00 10,8 10,5 7,7 20,4 17,7 0 0 3 1 N 1022,4 0 0,0
04.07.2020 05:00:00 11,4 10,6 8,1 20,5 17,7 0 0 3 2 N 1022,1 0 0,0
04.07.2020 04:00:00 11,7 10,6 8,4 20,6 17,7 3 1 4 2 NNE 1021,9 0 0,0
04.07.2020 03:00:00 12,5 11,1 8,8 20,8 17,7 3 2 5 3 NE 1021,8 0 0,0
04.07.2020 02:00:00 13,3 11,2 9,5 20,8 17,7 0 0 3 1 N 1021,8 0 0,0
04.07.2020 01:00:00 14,6 11,4 10,2 20,9 17,7 0 0 4 2 N 1021,5 0 0,0
04.07.2020 00:00:00 16,0 11,0 11,5 20,9 17,7 0 0 4 2 N 1021,2 0 0,0
03.07.2020 23:00:00 18,0 10,8 14,9 20,9 17,7 0 0 3 1 N 1020,8 0 0,0
03.07.2020 22:00:00 18,7 11,0 15,3 20,9 17,7 0 0 10 6 N 1020,2 7 0,0
03.07.2020 21:00:00 20,5 10,6 17,0 20,9 17,6 6 4 13 7 N 1019,4 38 0,0
03.07.2020 20:00:00 20,1 10,8 17,3 20,9 17,6 4 2 10 5 NO 1019,2 0 0,0
03.07.2020 19:00:00 20,4 10,5 19,0 20,8 17,6 7 4 19 10 N 1019,2 39 0,0
03.07.2020 18:00:00 23,2 10,9 27,0 20,8 17,6 5 3 18 10 ONO 1018,8 56 0,0
03.07.2020 17:00:00 22,2 11,3 23,0 20,7 17,6 9 5 19 10 N 1019,0 11 0,0
03.07.2020 16:00:00 20,9 10,4 22,4 20,6 17,6 9 5 26 14 NO 1019,3 7 0,0
03.07.2020 15:00:00 23,0 11,4 29,0 20,5 17,6 6 4 20 11 N 1019,0 52 0,0
03.07.2020 14:00:00 22,3 11,1 24,5 20,5 17,6 5 3 14 8 NNE 1019,6 18 0,0
03.07.2020 13:00:00 20,2 10,9 22,4 20,5 17,6 6 3 16 8 NNO 1020,0 0 0,0
03.07.2020 12:00:00 20,0 10,4 25,3 20,5 17,6 8 4 21 11 N 1020,1 25 0,0
03.07.2020 11:00:00 20,1 11,0 23,2 20,5 17,6 6 3 19 11 NNE 1019,9 41 0,0
03.07.2020 10:00:00 19,8 11,0 21,7 20,6 17,6 4 2 10 6 NE 1019,7 57 0,0
03.07.2020 09:00:00 18,3 11,4 12,8 20,6 17,5 3 2 9 5 N 1020,0 60 0,0
03.07.2020 08:00:00 15,3 10,7 12,3 20,8 17,6 4 2 9 5 NO 1020,3 51 0,0
03.07.2020 07:00:00 14,4 10,6 12,9 20,8 17,5 0 0 7 4 N 1020,1 5 0,0
03.07.2020 06:00:00 14,6 10,4 12,9 20,9 17,6 0 0 4 2 N 1019,6 0 0,0
03.07.2020 05:00:00 15,2 10,6 13,4 21,0 17,6 2 1 7 4 SO 1019,3 0 0,0
03.07.2020 04:00:00 16,0 10,1 13,4 21,1 17,5 3 2 14 7 N 1019,2 0 0,0
03.07.2020 03:00:00 16,8 10,2 14,7 21,2 17,6 6 3 17 9 ONO 1019,1 0 0,0
03.07.2020 02:00:00 17,3 10,7 15,1 21,2 17,5 3 2 8 5 NO 1018,9 0 0,0
03.07.2020 01:00:00 17,9 11,0 15,5 21,3 17,6 4 2 8 5 O 1018,3 0 0,0
03.07.2020 00:00:00 18,4 10,5 15,8 21,3 17,5 5 3 12 7 ONO 1017,9 0 0,0
02.07.2020 23:00:00 18,9 11,0 16,2 21,3 17,5 3 2 8 4 OSO 1017,4 0 0,0
02.07.2020 22:00:00 19,5 10,5 16,5 21,4 17,5 4 2 12 6 ONO 1016,6 0 0,0
02.07.2020 21:00:00 20,2 9,7 17,1 21,4 17,5 5 3 19 11 ONO 1016,1 0 0,0
02.07.2020 20:00:00 21,0 11,6 18,1 21,3 17,5 5 3 16 9 O 1015,6 0 0,0
02.07.2020 19:00:00 21,9 11,3 20,9 21,3 17,5 8 5 25 14 OSO 1014,8 11 0,0
02.07.2020 18:00:00 22,7 11,7 24,2 21,2 17,5 12 6 32 18 OSO 1014,3 36 0,0
02.07.2020 17:00:00 22,9 13,4 23,6 21,2 17,5 10 5 29 15 OSO 1014,4 3 0,0
02.07.2020 16:00:00 22,5 13,3 25,2 21,2 17,5 13 7 30 16 SSO 1014,4 12 0,0
02.07.2020 15:00:00 22,3 13,6 25,0 21,1 17,5 11 6 29 16 SSO 1014,6 25 0,0
02.07.2020 14:00:00 21,5 13,4 26,1 21,1 17,5 13 7 28 15 SSO 1014,9 14 0,0
02.07.2020 13:00:00 21,1 13,5 21,2 21,1 17,5 10 6 25 14 SO 1015,0 8 0,0
02.07.2020 12:00:00 19,1 15,0 18,1 21,2 17,5 8 4 17 9 SO 1015,3 0 0,0
02.07.2020 11:00:00 17,8 14,5 17,9 21,2 17,5 7 4 21 12 OSO 1015,3 0 0,0
02.07.2020 10:00:00 17,8 15,8 18,3 21,2 17,5 7 4 17 9 O 1015,0 0 0,0
02.07.2020 09:00:00 19,1 16,3 18,4 21,3 17,5 8 4 16 8 SO 1014,4 0 0,0
02.07.2020 08:00:00 19,1 16,3 18,1 21,3 17,5 7 4 16 9 SSO 1013,9 0 0,0
02.07.2020 07:00:00 19,3 16,5 18,0 21,4 17,5 6 3 17 9 SO 1013,7 0 0,0
02.07.2020 06:00:00 19,5 16,7 17,8 21,4 17,5 9 5 21 11 SO 1013,3 0 0,0
02.07.2020 05:00:00 19,7 16,5 18,0 21,5 17,5 8 5 21 11 SO 1013,1 0 0,0
02.07.2020 04:00:00 20,3 16,1 17,9 21,5 17,5 8 4 21 11 SSO 1012,9 0 0,0
02.07.2020 03:00:00 20,4 16,0 18,1 21,6 17,5 5 3 11 6 SSO 1012,9 0 0,0
02.07.2020 02:00:00 20,4 16,2 18,1 21,6 17,4 0 0 12 6 N 1012,8 0 0,2
02.07.2020 01:00:00 20,9 15,9 17,2 21,6 17,5 3 2 11 6 SO 1012,8 0 0,0
02.07.2020 00:00:00 21,7 15,8 17,9 21,6 17,4 5 3 18 10 SSO 1012,3 0 0,0
01.07.2020 23:00:00 22,0 15,1 18,1 21,6 17,4 6 3 27 15 SSO 1012,4 0 0,0
01.07.2020 22:00:00 23,4 15,7 20,1 21,6 17,4 16 9 35 19 SSO 1011,5 8 0,0
01.07.2020 21:00:00 24,6 16,1 21,8 21,5 17,4 9 5 21 11 SO 1010,6 31 0,0
01.07.2020 20:00:00 25,2 16,9 22,0 21,4 17,4 10 5 26 14 O 1010,2 2 0,0
01.07.2020 19:00:00 27,2 16,8 25,8 21,3 17,4 13 7 36 20 SO 1009,4 45 0,0
01.07.2020 18:00:00 28,0 16,9 30,7 21,2 17,5 14 8 30 16 SO 1009,3 60 0,0
01.07.2020 17:00:00 27,8 18,2 30,3 21,0 17,4 12 6 27 15 SO 1009,5 58 0,0
01.07.2020 16:00:00 26,9 17,7 27,9 20,8 17,5 11 6 23 13 SO 1009,6 8 0,0
01.07.2020 15:00:00 27,0 17,5 29,8 20,7 17,4 8 5 26 14 SO 1009,5 22 0,0
01.07.2020 14:00:00 27,6 16,6 32,2 20,5 17,4 9 5 26 14 SSO 1009,9 49 0,0
01.07.2020 13:00:00 26,7 15,7 37,0 20,4 17,4 12 6 27 15 SO 1010,1 60 0,0
01.07.2020 12:00:00 25,7 16,3 31,8 20,4 17,4 7 4 22 12 OSO 1010,4 60 0,0
01.07.2020 11:00:00 24,5 16,2 28,1 20,4 17,4 5 3 16 8 O 1010,8 60 0,0
01.07.2020 10:00:00 23,4 16,0 24,6 20,5 17,4 5 3 10 5 O 1011,1 60 0,0
01.07.2020 09:00:00 21,3 14,5 15,4 20,5 17,4 2 1 5 3 SO 1011,4 60 0,0
01.07.2020 08:00:00 16,8 14,3 13,3 20,6 17,4 0 0 4 2 N 1011,7 60 0,0
01.07.2020 07:00:00 14,7 14,1 11,7 20,7 17,4 3 1 4 2 NNE 1012,2 13 0,0
01.07.2020 06:00:00 14,3 13,8 11,4 20,8 17,4 0 0 6 3 N 1012,1 0 0,0
01.07.2020 05:00:00 14,5 13,9 11,6 20,9 17,4 0 0 5 3 N 1012,2 0 0,0
01.07.2020 04:00:00 14,7 13,9 11,9 21,0 17,4 3 2 5 3 NNE 1012,3 0 0,0
01.07.2020 03:00:00 15,1 14,1 12,1 21,0 17,4 0 0 5 3 N 1012,7 0 0,0
01.07.2020 02:00:00 15,9 14,4 12,6 21,1 17,4 0 0 3 2 N 1013,0 0 0,0
01.07.2020 01:00:00 16,6 14,4 13,0 21,2 17,4 0 0 4 2 N 1013,0 0 0,0
01.07.2020 00:00:00 17,4 14,7 13,5 21,2 17,4 2 1 4 2 NNE 1013,1 0 0,0
30.06.2020 23:00:00 19,0 14,5 14,4 21,2 17,4 0 0 4 2 N 1012,9 0 0,0
30.06.2020 22:00:00 20,8 14,4 15,8 21,1 17,4 0 0 9 5 N 1012,4 6 0,0
30.06.2020 21:00:00 23,5 14,2 19,7 21,0 17,4 6 3 16 9 SO 1011,8 37 0,0
30.06.2020 20:00:00 24,5 14,9 23,1 20,9 17,4 8 4 21 12 SO 1011,8 53 0,0
30.06.2020 19:00:00 24,7 14,8 26,4 20,8 17,4 10 5 25 14 SO 1012,1 60 0,0
30.06.2020 18:00:00 24,8 14,3 30,1 20,7 17,4 9 5 24 13 OSO 1012,4 60 0,0
30.06.2020 17:00:00 24,3 14,1 31,3 20,5 17,4 11 6 26 14 SO 1012,9 60 0,0
30.06.2020 16:00:00 24,3 13,8 33,2 20,4 17,4 11 6 23 13 OSO 1013,2 60 0,0
30.06.2020 15:00:00 23,3 11,0 32,5 20,2 17,3 11 6 27 15 SO 1013,7 60 0,0
30.06.2020 14:00:00 22,6 11,6 30,9 20,1 17,3 13 7 27 14 SO 1014,1 60 0,0
30.06.2020 13:00:00 21,7 12,5 27,2 20,1 17,4 11 6 24 13 OSO 1014,6 51 0,0
30.06.2020 12:00:00 20,6 11,8 25,4 20,1 17,4 12 7 27 14 SSO 1015,1 57 0,0
30.06.2020 11:00:00 19,8 11,8 23,4 20,1 17,3 8 4 19 10 SSO 1015,3 35 0,0
30.06.2020 10:00:00 18,7 11,5 19,8 20,2 17,4 8 5 16 9 OSO 1016,0 52 0,0
30.06.2020 09:00:00 17,0 11,3 16,4 20,3 17,4 9 5 19 10 SO 1016,1 35 0,0
30.06.2020 08:00:00 15,4 11,0 13,7 20,4 17,3 0 0 6 3 N 1016,3 10 0,0
30.06.2020 07:00:00 12,5 11,1 8,7 20,5 17,3 0 0 4 2 N 1016,7 28 0,0
30.06.2020 06:00:00 11,0 10,1 8,4 20,7 17,4 0 0 4 2 N 1017,1 0 0,0
30.06.2020 05:00:00 11,7 10,3 8,7 20,8 17,3 0 0 3 2 N 1017,0 0 0,0
30.06.2020 04:00:00 12,8 10,3 9,4 20,9 17,3 0 0 6 3 N 1017,2 0 0,0
30.06.2020 03:00:00 14,2 10,0 10,4 21,0 17,3 2 1 7 4 SSO 1017,1 0 0,0
30.06.2020 02:00:00 15,9 10,2 12,9 21,0 17,3 3 2 10 5 SO 1017,1 0 0,0
30.06.2020 01:00:00 15,7 10,2 11,3 21,1 17,3 4 2 12 7 O 1016,9 0 0,0
30.06.2020 00:00:00 15,7 11,3 11,5 21,2 17,3 2 1 8 4 SSE 1016,4 0 0,0

tt = Temperatura
td = dewpoint
tt 5cm = Temperatura 5cm
tt -20cm = Temperatura -20cm
tt -100cm = Temperatura -100cm
ff = velocità del vento
fx = gusts
dd = direzione del vento
ppp = reduced air pressure
sd = ore di luce
rr = precipitazioni

Stazioni seguenti

WeatherPro
AMSI
MeteoEarth